Location: Aulnoy
(48.8410°N, 3.0967°E)
Time: 22:04:26
(UTC+00:00)

Cosmos 2360 Rocket - Visible Passes

Search period start: 05 October 2024 00:00
Search period end: 15 October 2024 00:00
Orbit: 835 x 842 km, 71.0° (Epoch: 04 October)

Date Brightness Start Highest point End Pass type
(mag) Time Alt. Az. Time Alt. Az. Time Alt. Az.
05 Oct 4.0 20:30:58 10° N 20:33:53 21° NNE 20:33:53 21° NNE visible
05 Oct 4.7 22:14:26 10° NNW 22:15:37 17° NNW 22:15:37 17° NNW visible
06 Oct 3.9 20:15:02 10° N 20:18:10 21° NNE 20:18:10 21° NNE visible
06 Oct 4.5 21:58:28 10° NNW 21:59:54 19° NNW 21:59:54 19° NNW visible
07 Oct 3.9 19:59:06 10° N 20:02:28 21° NNE 20:02:28 21° NNE visible
07 Oct 4.4 21:42:29 10° NNW 21:44:12 21° NNW 21:44:12 21° NNW visible
08 Oct 3.8 19:43:10 10° N 19:46:47 20° NNE 19:46:47 20° NNE visible
08 Oct 4.2 21:26:30 10° NNW 21:28:31 23° NNW 21:28:31 23° NNW visible
09 Oct 3.8 19:27:15 10° N 19:31:07 20° NE 19:31:07 20° NE visible
09 Oct 4.0 21:10:31 10° NNW 21:12:52 26° NNW 21:12:52 26° NNW visible
10 Oct 3.8 19:11:18 10° N 19:15:13 19° NE 19:15:29 19° NE visible
10 Oct 3.8 20:54:32 10° NNW 20:57:14 29° NNW 20:57:14 29° NNW visible
11 Oct 3.8 18:55:23 10° N 18:59:10 18° NE 18:59:52 18° NE visible
11 Oct 3.6 20:38:34 10° NNW 20:41:37 33° NNW 20:41:37 33° NNW visible
12 Oct 3.8 18:39:27 10° N 18:43:07 17° NE 18:44:17 16° NE visible
12 Oct 3.3 20:22:35 10° NNW 20:26:02 38° NNW 20:26:02 38° NNW visible
12 Oct 5.0 22:07:27 10° NW 22:07:47 11° NW 22:07:47 11° NW visible
13 Oct 3.8 18:23:31 10° N 18:27:04 17° NE 18:28:44 15° NE visible
13 Oct 3.0 20:06:37 10° NNW 20:10:29 43° N 20:10:29 43° N visible
13 Oct 4.9 21:51:22 10° NW 21:52:14 13° WNW 21:52:14 13° WNW visible
14 Oct 3.9 18:07:37 10° N 18:11:01 16° NE 18:13:13 13° ENE visible
14 Oct 2.7 19:50:38 10° NNW 19:54:58 48° N 19:54:58 48° N visible
14 Oct 4.7 21:35:18 10° NW 21:36:42 16° WNW 21:36:42 16° WNW visible
